Vertical_Velocity
5 4 4 4 4 4 4 5 4 4 3 3 3 3 3 2 2 1 2 2 2 2 2 3 3 3 3 3 3 3 3 2 2 2 1 1 1 0 0 0 0 0 0 0 0 0 0 0 0 0 1 1 1 1 1 1 1 1 0 0 0 -0 -0 -0 -0 -0 -0 -0 -0 -0 0 0 0 0 0 0 0 0 0 0 0 0 0 0 -0 -0
5 5 4 4 4 4 3 4 4 3 2 3 3 3 3 2 2 2 2 1 1 2 2 2 2 3 3 3 3 3 2 2 2 1 1 1 1 0 0 0 0 -0 -0 0 0 0 0 0 0 1 1 1 1 1 0 0 0 -0 -0 -1 -1 -1 -1 -1 -1 -1 -1 -1 -1 -1 -1 -1 -1 -1 -1 -1 -0 -0 -0 -0 0 0 0 0 0 -0
5 5 4 4 5 5 4 4 3 2 3 3 3 3 3 2 2 2 2 2 1 2 2 2 2 2 2 2 2 2 1 1 1 1 1 1 1 0 0 -0 -0 -0 -0 -0 -0 0 0 0 1 1 1 1 0 0 -0 -0 -1 -1 -1 -1 -2 -2 -2 -2 -2 -2 -2 -2 -2 -2 -2 -2 -2 -2 -1 -1 -1 -1 -1 -0 -0 0 0 0 0 -0
3 3 2 4 4 4 4 4 3 2 2 2 2 2 2 2 2 2 2 1 1 1 1 2 2 2 1 1 1 1 1 1 1 1 0 0 0 0 -0 -0 -1 -1 -1 -1 -0 -0 0 0 0 0 0 0 -0 -0 -1 -1 -1 -2 -2 -2 -3 -3 -3 -3 -3 -3 -3 -3 -3 -2 -2 -2 -2 -2 -1 -1 -1 -1 -1 -0 -0 -0 -0 -0 -0 -0
1 1 1 3 2 1 2 4 3 1 1 2 1 1 1 1 1 1 0 -0 -0 0 1 1 1 0 0 1 0 0 -0 -0 -0 -0 -0 -0 -0 -0 -1 -1 -1 -1 -1 -1 -1 -0 -0 -0 0 0 -0 -1 -1 -1 -1 -1 -2 -2 -2 -3 -3 -3 -3 -3 -3 -3 -2 -2 -2 -2 -2 -1 -1 -1 -1 -1 -1 -1 -0 -0 -0 -0 -0 -0 -0 -0
-0 0 0 0 -1 -1 1 1 1 0 1 0 1 1 1 0 0 -0 -1 -1 -1 -0 0 -0 -1 -1 -1 -0 -0 -0 -1 -1 -0 -0 -0 -0 -1 -1 -1 -1 -1 -2 -2 -1 -1 -1 -1 -0 -0 -1 -1 -1 -1 -2 -2 -2 -2 -2 -2 -3 -3 -2 -2 -2 -2 -2 -2 -1 -1 -1 -1 -1 -1 -1 -0 -0 -0 -0 -0 -0 -0 -0 -0 -0 -0 -0
-0 -1 -0 -1 -2 -2 0 -1 -1 -0 1 -0 0 0 0 -0 -0 -1 -1 -1 -1 -1 -1 -1 -1 -1 -1 -1 -1 -0 -1 -1 -1 -0 -0 -0 -1 -1 -1 -1 -1 -1 -1 -1 -1 -1 -0 -0 -0 -1 -1 -1 -2 -2 -2 -2 -2 -2 -2 -2 -2 -2 -2 -1 -1 -1 -1 -1 -1 -1 -1 -1 -1 -0 -0 -0 -0 -0 0 -0 -0 -0 -0 -0 -0 -0
-2 -2 -1 -2 -2 -1 -1 -2 -1 -0 0 -0 -0 -0 -1 -0 -0 -0 -0 -0 -1 -1 -2 -2 -1 -1 -1 -1 -1 -1 -1 -1 -1 -1 -0 -0 -1 -1 -0 -1 -1 -1 -0 -0 0 0 0 0 0 -0 -1 -1 -1 -1 -1 -2 -2 -2 -2 -2 -2 -2 -1 -1 -1 -1 -1 -1 -1 -1 -1 -1 -1 -1 -1 -0 -0 -0 -0 -0 -0 -0 -0 -0 -0 -0
-2 -3 -2 -2 -1 -1 -2 -2 -1 -0 -0 -1 -1 -0 -0 -1 -1 -0 0 -1 -1 -1 -0 -1 -1 -1 -1 -0 -0 -1 -1 -0 -0 -1 -1 -1 -1 -1 -1 -0 -0 -0 -0 0 1 1 1 1 1 0 0 -0 -0 -1 -1 -1 -1 -2 -2 -2 -1 -1 -1 -1 -1 -1 -1 -1 -1 -1 -1 -1 -1 -1 -1 -1 -1 -1 -1 -0 -0 -1 -1 -1 -1 -1
-2 -2 -2 -2 -1 -1 -2 -3 -1 0 0 -2 -2 -1 -0 -2 -2 -2 -1 -2 -1 -0 0 -1 -2 -1 -0 0 0 -0 0 1 1 1 0 -1 -1 -0 -0 -0 -0 -0 0 0 1 1 1 1 1 1 0 0 0 -0 -0 -1 -1 -1 -1 -1 -1 -0 -0 -0 -0 -1 -1 -1 -1 -1 -1 -1 -1 -1 -1 -1 -1 -1 -1 -1 -1 -1 -1 -1 -1 -1
-2 -2 -1 -2 -2 -2 -2 -2 -0 1 -0 -3 -4 -2 -0 -2 -2 -2 -3 -4 -2 -1 -2 -3 -2 -0 -0 -1 -0 0 1 1 1 2 2 0 0 1 0 0 0 0 1 1 1 1 1 1 1 1 0 0 0 -0 -1 -1 -1 -1 -1 -0 -0 0 0 0 0 -0 -0 -0 -0 -0 -0 -0 -0 -0 -0 -0 -0 -0 -0 -0 -0 -0 -0 0 0 0
-1 -1 -1 -2 -2 -2 -3 -2 0 1 -1 -4 -4 -2 -1 -0 -0 -2 -5 -4 -3 -2 -4 -4 -2 -0 -0 -2 -2 -1 0 -0 0 1 3 0 0 0 1 1 1 2 2 2 2 2 2 1 1 1 1 0 -0 -0 -1 -1 -1 -1 -0 -0 -0 -0 0 0 0 -0 -0 -0 -0 0 0 0 0 0 0 0 0 0 0 0 1 1 1 1 1 1
-1 -1 -2 -2 -2 -2 -2 -1 -1 -1 -2 -3 -3 -2 -0 2 0 -3 -7 -4 -1 -0 -3 -4 -4 -2 -0 -1 -2 -2 -1 -2 -1 0 2 -1 -1 -0 1 -0 0 1 3 2 1 2 3 2 1 0 1 1 -0 -0 0 -1 -0 0 0 0 0 0 0 0 0 -0 -0 -0 -0 -0 0 0 0 0 0 0 1 1 1 1 1 1 1 1 1 1
-0 -0 -2 -3 -3 -2 -0 -1 -2 -3 -3 -2 -2 -2 -1 1 -1 -4 -7 -3 1 3 1 -5 -6 -3 2 0 -2 -3 -2 -3 -2 -1 -1 -2 -1 0 0 -3 -3 -0 3 0 -1 -0 4 2 -1 -3 -0 0 -1 -2 -0 0 1 1 1 1 1 1 1 1 0 0 0 0 0 0 0 0 0 0 0 0 1 1 1 1 1 1 1 0 0 0
1 1 -2 -4 -2 -0 0 -2 -3 -4 -3 -1 -1 -2 -2 -1 -2 -2 -3 -2 1 4 2 -6 -6 -2 3 1 -1 -3 -3 -4 -3 -2 -2 -4 -1 1 1 -5 -5 -1 4 -0 -4 -3 4 2 -3 -6 -3 -2 -3 -5 -3 -2 -1 0 0 0 0 0 0 0 0 0 0 0 -0 -0 -0 -0 -0 -0 -0 0 0 1 1 1 1 1 1 1 1 0
2 1 -3 -3 -1 0 -0 -1 -3 -4 -3 -0 -1 -3 -4 -4 -2 0 0 -3 -1 2 2 -5 -5 -2 1 2 1 -1 -4 -5 -3 -1 -0 -4 -3 0 3 -6 -8 -4 4 1 -4 -5 1 1 -2 -5 -4 -4 -5 -6 -6 -6 -4 -3 -2 -2 -2 -2 -1 -1 -1 -1 -1 -1 -1 -1 -1 -1 -1 -1 -1 -0 0 0 1 1 1 1 1 1 1 1
2 -0 -3 -1 0 0 -0 -1 -3 -4 -2 0 -1 -3 -4 -3 -0 1 -1 -4 -2 0 -0 -2 -2 -2 -2 0 0 -1 -2 -5 -5 -2 4 -4 -5 -1 6 -5 -11 -9 3 4 -2 -6 -3 -1 -2 -3 -3 -4 -4 -5 -7 -7 -7 -6 -5 -5 -5 -4 -4 -4 -4 -3 -3 -3 -3 -3 -2 -2 -2 -2 -2 -1 -1 -1 -0 -0 0 0 1 1 1 1
0 -1 -1 0 0 0 1 -1 -4 -4 -1 0 -1 -3 -3 -2 -0 0 -2 -4 -2 -1 -2 -0 -1 -2 -2 -2 -3 -2 5 -6 -10 -7 6 -0 -4 -2 5 -3 -10 -11 -0 2 -0 -4 -4 -4 -3 -1 -1 -3 -3 -3 -6 -6 -7 -7 -7 -7 -6 -6 -6 -5 -5 -5 -5 -4 -4 -4 -4 -3 -3 -3 -3 -2 -2 -2 -2 -2 -1 -1 -0 -0 0 0
-0 0 1 -0 -0 0 1 -2 -4 -3 -0 -1 -1 -1 -2 -3 -1 0 -3 -3 -2 -1 -2 -1 -3 -3 -0 -4 -4 -0 10 -6 -14 -12 4 3 0 -1 2 -3 -9 -11 -3 0 0 -2 -4 -6 -5 -2 -0 -1 -1 -2 -3 -4 -5 -6 -6 -6 -6 -6 -5 -5 -5 -5 -5 -4 -4 -4 -4 -3 -3 -3 -4 -4 -4 -4 -4 -3 -3 -3 -2 -2 -1 -1
-0 1 -1 -1 -0 0 -1 -3 -2 -1 -1 -1 -1 -0 -4 -3 -0 1 -4 -2 -1 -1 -2 -2 -4 -4 1 -2 -4 -1 8 -1 -10 -13 -4 3 2 -0 1 -1 -7 -10 -4 -1 0 0 -2 -6 -5 -1 1 0 0 0 0 -1 -3 -5 -5 -5 -4 -4 -4 -4 -4 -4 -4 -4 -4 -3 -3 -3 -3 -3 -4 -4 -4 -4 -4 -4 -4 -4 -4 -4 -4 -3
-0 -1 -2 0 0 -1 -4 -2 0 0 -2 -2 -2 -2 -4 -0 1 -0 -4 -2 -2 -2 -1 -1 -3 -3 4 1 -4 -4 5 4 -5 -13 -8 2 2 -2 1 2 -3 -8 -6 -3 1 3 -1 -6 -5 -1 3 1 1 1 3 2 -0 -2 -4 -4 -4 -3 -3 -4 -4 -4 -4 -4 -4 -3 -3 -3 -3 -4 -4 -4 -4 -4 -4 -4 -4 -4 -4 -5 -5 -5
-1 -2 -1 1 -1 -4 -4 1 1 -0 -4 -3 -3 -3 -2 2 0 -3 -4 -1 -1 -3 -2 -1 -2 -1 4 -0 -5 -4 7 6 -3 -10 -6 1 -2 -3 6 6 -1 -8 -8 -3 2 4 -0 -6 -5 -2 3 2 1 1 2 3 2 -0 -2 -3 -4 -3 -3 -4 -4 -4 -4 -4 -4 -3 -3 -4 -4 -4 -4 -4 -4 -4 -4 -4 -4 -4 -4 -4 -5 -5
-1 -1 1 0 -2 -4 -2 2 1 -2 -3 -3 -3 -3 1 2 -1 -4 -4 1 -0 -3 -3 -1 -0 0 1 -2 -3 -0 6 4 -2 -5 -2 -3 -5 -2 12 8 -2 -11 -10 -1 4 4 -3 -6 -5 -1 3 2 0 -1 1 3 2 1 -1 -2 -3 -3 -3 -4 -4 -4 -4 -4 -4 -4 -4 -4 -4 -4 -4 -4 -4 -4 -4 -4 -4 -4 -4 -4 -5 -5
-0 -0 1 -0 -2 -3 -1 1 0 -1 -2 -2 -3 -2 1 1 -2 -4 -2 1 -0 -2 -3 -1 0 -0 -2 1 2 1 -1 2 1 -2 -4 -6 -4 1 11 7 -2 -11 -12 1 6 3 -7 -7 -4 1 4 -0 -2 -2 0 2 2 2 1 -1 -2 -3 -4 -4 -4 -4 -4 -4 -3 -4 -4 -4 -4 -4 -4 -4 -4 -4 -4 -4 -4 -4 -4 -5 -5 -5
0 0 -0 -1 -1 -1 -1 -0 0 0 -0 -1 -2 -1 0 0 -1 -2 -1 0 0 -1 -1 0 -0 -2 -2 5 3 -3 -8 2 4 1 -7 -6 -3 1 6 6 -0 -8 -13 -1 6 4 -7 -9 -4 3 6 -1 -4 -3 0 1 1 2 2 1 0 -1 -3 -4 -4 -4 -4 -3 -3 -4 -4 -4 -4 -4 -3 -4 -4 -4 -4 -4 -4 -4 -4 -5 -5 -6
0 0 -0 -0 -1 -1 -1 -0 0 1 0 -0 -1 -1 -0 -0 -1 -1 -2 -1 0 2 1 -2 -3 -3 1 6 1 -6 -8 3 4 0 -5 -4 -3 -1 1 6 2 -6 -15 -4 4 5 -4 -9 -5 2 7 -1 -3 -2 0 -0 0 2 3 4 3 2 -0 -2 -3 -4 -4 -3 -4 -4 -4 -3 -3 -3 -3 -3 -3 -3 -3 -3 -4 -4 -4 -5 -6 -6
-0 -0 -0 -0 -0 -0 -0 0 1 1 0 -0 -1 -1 -0 -0 -1 -3 -4 -1 2 4 -2 -6 -5 -1 4 4 -1 -6 -2 3 1 -3 -2 -1 -4 -6 -3 6 4 -5 -15 -7 1 6 1 -7 -6 1 6 -0 -2 -1 -0 -0 1 2 3 5 6 5 3 1 -1 -2 -3 -4 -4 -4 -3 -3 -2 -2 -2 -2 -2 -2 -2 -2 -3 -4 -4 -6 -6 -6
-1 -0 -0 -0 -0 -0 0 0 0 0 0 -1 -1 -1 -0 0 -2 -4 -6 1 4 2 -9 -7 -2 1 2 1 -3 -4 2 1 -3 -5 2 1 -6 -12 -5 7 4 -5 -12 -9 -2 4 6 -5 -5 -0 5 1 -0 -0 -2 0 2 3 3 5 6 7 6 4 2 0 -2 -3 -3 -4 -4 -3 -2 -2 -2 -1 -1 -1 -1 -2 -2 -4 -5 -6 -6 -6
-0 -0 -0 -0 0 1 1 0 0 0 -0 -1 -1 -2 -1 -0 -2 -5 -6 3 4 -2 -13 -5 1 3 -2 -3 -3 -1 3 -0 -3 -2 5 -1 -12 -16 -1 8 0 -9 -7 -6 -5 -2 5 -2 -2 0 0 -1 0 1 -2 0 3 4 3 4 5 6 6 5 4 3 1 -0 -1 -2 -2 -2 -2 -2 -2 -1 -1 -1 -1 -1 -2 -4 -6 -6 -6 -6
0 1 0 0 1 2 1 1 0 -0 -0 -1 -1 -2 -2 -1 -2 -4 -4 2 1 -4 -10 -3 1 1 -4 -4 -3 -1 0 -0 -0 1 4 -6 -15 -15 5 6 -5 -12 -1 -3 -8 -9 -3 1 4 3 -4 -4 -2 1 -0 1 3 4 4 4 4 4 4 4 3 2 2 2 1 0 -1 -1 -1 -1 -2 -1 -1 -1 -1 -1 -3 -4 -6 -7 -7 -6
1 1 -0 1 2 2 1 0 0 -0 -0 -1 -1 -2 -2 -2 -2 -3 -2 -0 -1 -4 -5 -3 -1 -2 -4 -3 -4 -4 -4 1 2 1 -0 -10 -15 -11 10 3 -9 -14 2 2 -7 -15 -15 -3 5 6 -1 -6 -5 -2 1 1 1 1 3 4 3 2 2 3 2 0 -0 1 2 1 -0 -0 -0 -0 -1 -2 -1 -1 -1 -2 -3 -5 -7 -8 -8 -8
0 0 -1 0 1 1 -1 -1 -1 -0 -1 -1 -2 -2 -2 -2 -3 -3 -3 -3 -3 -3 -4 -4 -4 -3 -4 -3 -4 -5 -5 1 0 -1 -2 -11 -16 -11 8 2 -10 -15 -2 2 -4 -14 -18 -12 -4 2 4 -4 -6 -4 1 1 -0 -1 -1 1 1 -0 1 3 2 -1 -2 1 2 1 -2 -1 -1 -1 -2 -3 -3 -2 -2 -3 -4 -6 -8 -9 -9 -10
-1 -1 -1 -0 -1 -1 -3 -2 -2 -2 -2 -2 -3 -3 -3 -3 -4 -4 -4 -4 -4 -4 -5 -6 -6 -6 -6 -5 -6 -6 -4 -2 -3 -4 -3 -10 -15 -14 -0 -0 -8 -14 -8 -4 -7 -12 -14 -15 -12 -6 -2 -5 -4 -2 -1 -2 -2 -2 -3 -3 -4 -4 -2 2 1 -2 -4 -0 1 0 -4 -3 -2 -2 -4 -5 -4 -4 -4 -5 -5 -6 -8 -9 -10 -11
-1 -1 -1 -1 -2 -3 -3 -3 -3 -3 -3 -3 -4 -4 -4 -4 -5 -5 -5 -6 -6 -6 -6 -7 -7 -8 -8 -8 -8 -8 -6 -4 -4 -4 -4 -10 -14 -14 -5 -4 -9 -13 -8 -9 -11 -13 -13 -17 -14 -10 -9 -11 -6 0 2 -2 -4 -5 -4 -4 -6 -7 -6 -1 -0 -2 -7 -3 -1 -1 -5 -4 -2 -2 -5 -5 -5 -5 -6 -5 -5 -6 -8 -9 -10 -10
-1 -1 -1 -1 -2 -3 -3 -3 -3 -3 -3 -3 -4 -4 -4 -5 -5 -5 -5 -6 -6 -7 -7 -7 -6 -6 -7 -7 -8 -9 -7 -4 -2 -3 -7 -10 -11 -10 -6 -8 -9 -7 -5 -13 -12 -8 -9 -19 -16 -10 -6 -13 -12 -5 5 3 -2 -6 -6 -3 -3 -4 -7 -3 -0 -0 -5 -4 -2 -1 -3 -2 -2 -2 -3 -3 -2 -3 -4 -4 -3 -4 -6 -8 -8 -9
-1 -1 -0 -0 -1 -2 -2 -2 -2 -2 -3 -3 -2 -2 -3 -4 -4 -4 -4 -5 -5 -6 -6 -6 -5 -4 -4 -4 -4 -5 -6 -2 0 -1 -8 -10 -7 -5 -7 -11 -6 -0 -1 -14 -12 -5 -1 -13 -15 -10 -1 -7 -11 -10 -0 4 3 -2 -6 -3 -0 0 -5 -4 0 3 -1 -4 -3 -1 0 -0 -2 -2 -2 -0 1 0 -2 -1 -1 -1 -2 -5 -7 -7
-0 -0 0 0 -1 -2 -2 -1 -0 -1 -2 -2 -1 -1 -1 -2 -2 -2 -2 -3 -4 -4 -5 -5 -5 -4 -4 -4 -2 -2 -2 1 1 -1 -5 -7 -5 -4 -7 -11 -6 2 3 -9 -12 -8 -0 -7 -12 -13 -4 -2 -4 -7 -6 -2 1 0 -5 -2 2 3 -4 -4 0 4 0 -4 -3 1 4 2 -1 -3 -3 -0 1 2 1 -0 1 2 2 -2 -5 -5
-0 -0 1 1 -0 -1 -1 -0 0 0 0 -0 -0 -0 0 -1 -1 -1 -1 -2 -3 -3 -4 -4 -4 -4 -4 -4 -3 -2 -0 1 1 -1 -2 -4 -4 -5 -6 -9 -7 -2 2 -4 -8 -10 -4 -6 -10 -12 -10 -7 -5 -4 -4 -3 -3 -4 -7 -1 2 3 -3 -3 -0 1 -2 -4 -2 1 3 2 0 -2 -4 -3 -0 2 3 -1 -1 2 4 -1 -4 -4
-0 0 0 0 0 -0 -1 -1 0 1 1 -0 -1 -0 0 -1 -2 -2 -1 -2 -3 -3 -3 -3 -4 -4 -4 -3 -3 -2 -1 -0 -0 -1 -1 -3 -4 -5 -4 -7 -7 -6 -2 -3 -6 -9 -7 -7 -7 -8 -8 -10 -12 -11 -7 -3 -4 -6 -7 -3 -1 -1 -3 1 1 -2 -6 -1 1 1 -2 -0 2 3 -2 -5 -3 1 3 -1 -2 0 3 -1 -4 -6
0 -0 -0 0 0 0 -1 -2 -1 0 0 -2 -2 -1 -0 -2 -3 -3 -2 -1 -2 -3 -3 -2 -3 -3 -3 -1 -1 -1 -1 -1 -2 -2 -2 -4 -4 -4 -4 -6 -7 -8 -4 -4 -7 -8 -7 -8 -10 -10 -7 -7 -11 -14 -11 -5 -4 -5 -6 -5 -5 -5 -1 4 1 -5 -8 2 5 4 -2 -2 2 4 3 -2 -4 -3 -1 -1 -1 -2 -1 0 -2 -7
-1 -2 -1 0 0 -0 -3 -2 -1 0 -1 -3 -3 -3 -2 -2 -3 -4 -4 -3 -3 -4 -4 -3 -4 -5 -4 -1 1 1 -1 -3 -4 -3 -3 -5 -6 -7 -7 -8 -8 -8 -6 -8 -9 -8 -4 -5 -10 -13 -11 -7 -9 -13 -15 -7 -1 1 -3 -8 -10 -7 2 6 1 -4 -5 -0 2 4 6 1 -1 -0 5 3 -1 -5 -4 -1 -2 -5 -5 0 0 -3
-2 -2 -0 1 -0 -2 -3 -1 -1 -1 -2 -2 -2 -3 -3 -1 -3 -5 -6 -4 -4 -5 -4 -3 -5 -6 -6 -4 -0 1 0 -4 -5 -4 -4 -6 -7 -9 -10 -11 -11 -10 -8 -9 -11 -10 -4 -1 -6 -11 -14 -7 -6 -10 -19 -12 -2 5 2 -8 -10 -8 -0 1 2 4 6 -5 -6 1 15 5 -3 -5 2 4 1 -3 -3 -1 -3 -5 -5 -2 -1 -1
-2 -1 0 -0 -1 -2 -1 -1 -2 -3 -2 -2 -3 -4 -3 -2 -4 -6 -6 -5 -4 -5 -5 -6 -6 -5 -5 -6 -3 -0 -0 -3 -4 -4 -4 -6 -7 -8 -10 -12 -12 -11 -8 -8 -11 -12 -8 -0 -1 -7 -14 -8 -5 -6 -12 -7 -2 1 -2 -6 -5 -3 -4 -8 -0 9 12 -5 -7 -0 11 4 -1 -4 0 3 1 -1 -1 -1 -2 -2 -1 -2 -3 -4
-1 -1 -0 -1 -2 -1 -1 -2 -3 -3 -2 -4 -5 -6 -4 -4 -5 -7 -7 -6 -4 -4 -5 -7 -7 -5 -5 -5 -2 -1 -3 -4 -3 -1 -3 -5 -5 -4 -6 -9 -12 -12 -8 -6 -8 -10 -9 -5 -4 -4 -4 -4 -7 -10 -8 -0 3 2 -4 -4 -2 -1 -6 -8 -1 7 5 -5 -4 2 5 0 -3 -3 -0 3 3 1 -1 -1 -1 1 2 1 -2 -4
-1 -1 -1 -1 -1 -1 -3 -4 -3 -2 -3 -5 -5 -5 -4 -4 -5 -6 -7 -6 -5 -4 -5 -5 -5 -7 -11 -5 -0 1 -6 -7 -3 0 -0 -4 -4 -3 -1 -4 -7 -9 -9 -8 -7 -6 -4 -7 -8 -7 -1 1 -3 -6 -5 -1 0 -1 -2 1 1 -2 -11 -6 1 5 -3 -8 -4 2 4 0 -4 -6 -4 3 6 4 -0 -1 -1 1 2 3 1 -3
-0 -0 -1 -1 -1 -2 -4 -3 -2 -2 -5 -5 -4 -3 -3 -4 -5 -6 -5 -4 -4 -6 -8 -3 -2 -5 -12 -6 -1 0 -6 -8 -4 1 2 -3 -5 -4 -1 -1 -3 -5 -6 -8 -9 -7 -3 -4 -5 -6 -4 -2 -2 -0 3 3 -3 -8 -9 2 6 1 -11 -6 1 4 -2 -8 -6 -1 6 3 -2 -6 -4 2 4 4 1 2 1 -0 -0 1 1 -1
1 0 -1 -1 -1 -2 -3 -2 -2 -3 -5 -4 -3 -2 -4 -4 -5 -6 -6 -4 -3 -5 -10 -6 -4 -5 -9 -6 -2 -1 -4 -7 -4 -0 3 -2 -5 -5 -2 -2 -4 -4 -3 -4 -6 -7 -6 -3 -2 -2 -3 -5 -5 -3 4 6 -0 -9 -14 -2 4 2 -7 -5 0 4 -0 -6 -6 -2 5 2 -2 -5 -1 2 1 -0 1 3 3 1 -1 -1 -1 -1
1 0 -1 -1 -1 -2 -3 -2 -2 -3 -5 -4 -3 -3 -4 -4 -4 -6 -8 -6 -4 -5 -9 -8 -7 -5 -6 -6 -4 -2 -2 -4 -4 -1 2 -2 -4 -5 -3 -3 -4 -5 -5 -4 -3 -3 -4 -3 -2 -1 -2 -6 -8 -7 -1 6 1 -6 -11 -4 0 0 -5 -3 1 3 -0 -4 -3 0 3 -0 -3 -3 -0 -0 -1 -0 2 3 3 2 1 -1 -2 -3
0 -1 -2 -1 -1 -3 -4 -3 -3 -4 -6 -5 -4 -4 -7 -5 -4 -5 -9 -8 -7 -6 -8 -8 -7 -6 -6 -6 -5 -4 -4 -5 -4 -1 1 -1 -3 -5 -5 -4 -3 -3 -6 -5 -3 -1 -3 -3 -1 2 3 -5 -11 -12 -4 4 3 -2 -9 -5 -2 -0 -3 -2 0 2 0 -2 -1 1 2 -0 -1 -2 -2 -4 -2 1 4 3 2 2 1 -1 -2 -3
-1 -1 -1 -1 -2 -4 -4 -4 -4 -5 -7 -5 -5 -5 -7 -7 -6 -7 -8 -8 -8 -8 -7 -6 -5 -6 -7 -6 -4 -3 -4 -6 -5 -3 -1 -0 -2 -4 -8 -4 -2 -2 -7 -7 -3 0 -2 -6 -3 4 11 3 -7 -14 -12 -1 3 2 -6 -6 -3 -1 -4 -3 -0 2 1 -1 -1 1 2 1 0 -0 -3 -4 -3 -0 3 3 2 2 1 -1 -2 -2
-2 -2 -2 -3 -4 -5 -5 -4 -5 -6 -6 -6 -5 -6 -7 -7 -8 -8 -8 -8 -8 -8 -8 -6 -4 -4 -6 -5 -4 -2 -3 -4 -5 -5 -4 -0 -1 -4 -9 -5 -2 -2 -7 -8 -4 -1 -1 -7 -6 -1 11 12 3 -9 -16 -7 -1 1 -4 -3 -2 -2 -5 -3 -0 1 0 -1 -0 1 1 0 0 0 -1 -3 -3 -1 2 3 3 2 1 -2 -3 -3
Height
5654 5654 5655 5655 5656 5657 5657 5658 5658 5659 5659 5660 5660 5661 5662 5662 5663 5663 5663 5664 5664 5664 5665 5665 5666 5666 5667 5667 5668 5668 5669 5669 5670 5670 5670 5671 5671 5671 5672 5672 5672 5672 5673 5673 5673 5673 5673 5673 5673 5674 5674 5674 5674 5674 5674 5674 5674 5674 5673 5673 5673 5673 5674 5674 5674 5674 5674 5674 5674 5674 5674 5673 5673 5673 5673 5673 5673 5672 5672 5672 5671 5671 5671 5670 5670 5670
5650 5651 5651 5652 5653 5653 5654 5654 5655 5655 5656 5656 5657 5658 5658 5659 5659 5659 5659 5660 5660 5660 5661 5661 5662 5663 5663 5664 5664 5664 5665 5665 5666 5666 5667 5667 5667 5668 5668 5668 5668 5668 5669 5669 5669 5669 5669 5669 5669 5669 5669 5669 5669 5669 5669 5669 5669 5669 5669 5669 5669 5669 5669 5669 5669 5669 5669 5669 5669 5669 5669 5669 5668 5668 5668 5668 5668 5667 5667 5667 5666 5666 5666 5666 5665 5665
5646 5647 5648 5648 5649 5649 5650 5650 5651 5652 5652 5653 5653 5654 5654 5654 5655 5655 5655 5655 5656 5656 5657 5657 5658 5659 5659 5659 5660 5660 5661 5662 5662 5662 5663 5663 5663 5663 5664 5664 5664 5664 5664 5664 5664 5664 5665 5665 5665 5665 5665 5664 5664 5664 5664 5664 5664 5664 5664 5664 5664 5664 5664 5664 5664 5664 5664 5664 5664 5664 5664 5664 5663 5663 5663 5663 5663 5662 5662 5662 5661 5661 5661 5661 5660 5660
5643 5643 5644 5644 5644 5645 5645 5646 5647 5648 5648 5649 5649 5649 5650 5650 5650 5650 5651 5651 5651 5652 5652 5653 5654 5654 5654 5655 5656 5656 5657 5657 5658 5658 5658 5659 5659 5659 5659 5659 5659 5659 5660 5660 5660 5660 5660 5660 5660 5660 5660 5660 5659 5659 5659 5659 5659 5659 5659 5659 5659 5659 5659 5659 5659 5659 5659 5659 5659 5659 5659 5659 5658 5658 5658 5658 5658 5657 5657 5657 5656 5656 5656 5656 5655 5655
5639 5639 5639 5640 5641 5641 5641 5642 5642 5643 5644 5644 5644 5644 5645 5645 5646 5646 5646 5647 5647 5647 5648 5648 5649 5649 5650 5650 5651 5651 5652 5652 5653 5653 5654 5654 5654 5654 5654 5654 5655 5655 5655 5655 5655 5655 5655 5655 5655 5655 5655 5655 5654 5654 5654 5654 5654 5654 5654 5654 5654 5654 5654 5654 5654 5654 5654 5654 5654 5654 5654 5654 5654 5653 5653 5653 5653 5652 5652 5652 5651 5651 5651 5651 5650 5650
5634 5635 5635 5636 5637 5637 5637 5637 5638 5639 5639 5639 5639 5640 5640 5641 5641 5641 5642 5642 5643 5643 5644 5644 5645 5645 5646 5646 5647 5647 5648 5648 5648 5648 5649 5649 5649 5649 5649 5650 5650 5650 5650 5651 5651 5651 5651 5651 5650 5650 5650 5650 5650 5649 5649 5649 5649 5649 5649 5649 5649 5649 5649 5649 5649 5649 5649 5649 5649 5649 5649 5649 5649 5648 5648 5648 5648 5647 5647 5647 5646 5646 5646 5645 5645 5645
5630 5631 5631 5632 5633 5633 5633 5634 5634 5634 5635 5635 5635 5635 5636 5636 5637 5637 5638 5638 5639 5639 5639 5640 5641 5641 5642 5642 5642 5643 5643 5644 5644 5644 5644 5644 5644 5644 5645 5645 5645 5645 5646 5646 5646 5646 5646 5646 5646 5646 5645 5645 5645 5645 5645 5644 5644 5644 5644 5644 5644 5644 5644 5644 5644 5644 5644 5644 5644 5644 5644 5644 5643 5643 5643 5643 5642 5642 5642 5641 5641 5641 5640 5640 5639 5639
5625 5626 5627 5628 5628 5628 5629 5630 5630 5630 5631 5631 5632 5632 5633 5633 5634 5634 5634 5634 5635 5635 5636 5636 5637 5637 5638 5638 5639 5639 5639 5639 5639 5640 5640 5640 5640 5640 5640 5641 5641 5641 5641 5641 5641 5641 5641 5641 5641 5641 5641 5640 5640 5640 5640 5640 5640 5640 5640 5640 5640 5640 5640 5640 5639 5639 5639 5639 5639 5639 5639 5638 5638 5638 5637 5637 5637 5636 5636 5636 5635 5635 5634 5634 5634 5633
5621 5622 5623 5623 5624 5624 5625 5626 5626 5627 5627 5628 5628 5629 5629 5630 5630 5630 5631 5631 5631 5632 5632 5633 5633 5634 5634 5634 5634 5635 5635 5635 5635 5635 5635 5636 5636 5636 5636 5636 5637 5637 5637 5637 5637 5637 5637 5637 5636 5636 5636 5636 5636 5635 5635 5635 5635 5635 5635 5635 5635 5635 5635 5634 5634 5634 5634 5634 5634 5633 5633 5633 5632 5632 5632 5631 5631 5630 5630 5630 5629 5629 5629 5628 5628 5627
5617 5618 5619 5619 5620 5620 5621 5622 5622 5623 5624 5624 5625 5625 5626 5626 5627 5627 5627 5628 5628 5628 5629 5629 5630 5630 5630 5630 5631 5631 5631 5631 5631 5631 5631 5631 5632 5632 5632 5632 5632 5633 5633 5633 5633 5633 5632 5632 5632 5632 5631 5631 5631 5631 5630 5630 5630 5630 5630 5630 5630 5630 5629 5629 5629 5629 5629 5628 5628 5628 5627 5627 5627 5626 5626 5625 5625 5624 5624 5624 5623 5623 5622 5622 5622 5621
5614 5614 5614 5615 5616 5617 5618 5618 5618 5619 5620 5621 5621 5621 5622 5623 5623 5623 5624 5624 5624 5624 5625 5625 5626 5626 5626 5626 5626 5627 5627 5627 5627 5627 5627 5627 5627 5627 5628 5628 5628 5628 5628 5628 5628 5628 5628 5627 5627 5627 5626 5626 5626 5626 5625 5625 5625 5625 5625 5625 5625 5624 5624 5624 5624 5624 5623 5623 5623 5622 5622 5622 5621 5621 5620 5620 5619 5619 5619 5618 5618 5617 5617 5616 5616 5615
5609 5610 5611 5612 5612 5613 5614 5614 5614 5614 5616 5617 5618 5618 5618 5618 5619 5619 5620 5620 5620 5620 5621 5621 5621 5621 5621 5621 5622 5622 5623 5623 5623 5622 5622 5622 5623 5623 5623 5623 5623 5624 5624 5624 5624 5623 5623 5622 5622 5622 5621 5621 5621 5621 5620 5620 5620 5620 5620 5620 5620 5619 5619 5619 5618 5618 5618 5617 5617 5617 5616 5616 5616 5615 5615 5614 5614 5613 5613 5612 5612 5611 5611 5610 5610 5609
5606 5606 5607 5608 5609 5609 5610 5610 5610 5611 5612 5613 5614 5613 5613 5613 5614 5615 5616 5616 5615 5615 5616 5617 5617 5617 5617 5617 5617 5617 5618 5618 5618 5618 5618 5618 5618 5618 5618 5618 5618 5618 5618 5619 5618 5618 5617 5617 5617 5617 5616 5616 5616 5616 5615 5615 5615 5615 5615 5615 5614 5614 5614 5613 5613 5613 5612 5612 5611 5611 5611 5610 5610 5609 5609 5609 5608 5608 5607 5607 5606 5605 5605 5604 5604 5604
5602 5603 5604 5604 5605 5605 5605 5606 5607 5607 5608 5608 5609 5609 5609 5609 5610 5612 5612 5612 5611 5611 5612 5613 5614 5613 5612 5612 5612 5613 5613 5613 5613 5613 5613 5613 5613 5613 5613 5613 5613 5613 5613 5613 5613 5612 5612 5611 5611 5611 5610 5610 5610 5610 5610 5610 5610 5610 5610 5609 5609 5609 5608 5608 5607 5607 5607 5606 5606 5605 5605 5604 5604 5604 5603 5603 5602 5602 5601 5601 5600 5599 5599 5599 5598 5597
5599 5599 5600 5601 5601 5601 5601 5602 5603 5604 5604 5604 5604 5605 5606 5606 5606 5607 5607 5607 5607 5606 5608 5609 5609 5609 5608 5608 5608 5608 5609 5609 5609 5609 5609 5608 5608 5608 5608 5608 5608 5608 5607 5608 5608 5607 5606 5606 5606 5605 5604 5604 5604 5604 5604 5604 5604 5604 5604 5603 5603 5603 5602 5602 5601 5601 5600 5600 5599 5599 5599 5598 5598 5597 5597 5596 5596 5595 5595 5594 5594 5594 5593 5592 5592 5591
5595 5596 5597 5597 5597 5597 5598 5599 5599 5600 5600 5600 5600 5601 5602 5602 5602 5602 5603 5603 5603 5603 5604 5604 5605 5604 5603 5603 5603 5604 5605 5605 5604 5604 5604 5604 5603 5603 5603 5604 5604 5603 5602 5602 5603 5602 5601 5601 5600 5600 5599 5599 5598 5598 5598 5598 5598 5597 5597 5597 5596 5596 5595 5595 5595 5594 5594 5593 5593 5592 5592 5591 5591 5590 5590 5589 5589 5589 5588 5588 5587 5587 5586 5585 5585 5584
5592 5593 5593 5593 5593 5593 5594 5594 5595 5596 5596 5596 5597 5598 5598 5598 5598 5598 5599 5599 5599 5599 5599 5600 5600 5600 5599 5598 5598 5599 5600 5601 5600 5599 5600 5600 5599 5598 5598 5599 5599 5598 5597 5597 5597 5597 5597 5596 5595 5595 5595 5594 5593 5593 5592 5592 5591 5591 5591 5590 5590 5589 5589 5589 5588 5588 5587 5586 5586 5585 5585 5584 5584 5583 5583 5582 5582 5581 5581 5580 5579 5579 5579 5578 5577 5577
5589 5589 5589 5589 5589 5589 5590 5590 5591 5592 5592 5592 5593 5593 5594 5594 5594 5594 5594 5595 5595 5595 5595 5595 5596 5596 5596 5595 5594 5594 5595 5597 5597 5596 5595 5595 5594 5593 5592 5594 5594 5594 5592 5592 5592 5592 5592 5591 5590 5590 5590 5589 5589 5588 5587 5586 5585 5585 5584 5584 5584 5583 5582 5582 5581 5581 5580 5580 5579 5579 5578 5577 5577 5576 5576 5575 5574 5574 5573 5572 5572 5571 5571 5570 5569 5569
5585 5585 5585 5586 5586 5586 5586 5587 5587 5588 5588 5588 5589 5589 5589 5589 5590 5590 5590 5590 5591 5591 5591 5591 5591 5592 5592 5591 5590 5589 5590 5592 5593 5592 5590 5590 5589 5589 5588 5589 5589 5589 5588 5587 5586 5587 5587 5586 5585 5585 5585 5585 5584 5583 5581 5580 5579 5579 5578 5578 5577 5577 5576 5575 5575 5574 5574 5573 5572 5572 5571 5570 5570 5569 5568 5568 5567 5566 5565 5565 5564 5564 5563 5562 5562 5561
5581 5581 5582 5582 5582 5582 5582 5583 5583 5583 5584 5584 5584 5585 5585 5585 5585 5585 5586 5586 5586 5587 5587 5587 5587 5587 5587 5587 5586 5585 5585 5587 5588 5587 5586 5585 5584 5584 5584 5584 5584 5584 5583 5581 5581 5581 5582 5581 5580 5580 5580 5580 5579 5578 5576 5574 5574 5573 5572 5572 5571 5570 5569 5569 5568 5567 5567 5566 5565 5564 5564 5563 5562 5561 5560 5560 5559 5559 5558 5557 5556 5556 5555 5554 5554 5553
5577 5577 5578 5578 5579 5579 5579 5579 5579 5579 5579 5580 5581 5581 5581 5581 5580 5581 5581 5582 5582 5582 5582 5583 5583 5582 5582 5582 5582 5581 5580 5581 5582 5582 5581 5580 5580 5579 5579 5579 5579 5579 5578 5576 5576 5576 5577 5576 5575 5574 5574 5574 5574 5573 5571 5569 5568 5567 5566 5565 5565 5564 5563 5562 5561 5561 5560 5559 5558 5558 5557 5556 5554 5554 5553 5552 5551 5550 5549 5549 5548 5547 5547 5546 5545 5545
5573 5573 5573 5574 5574 5575 5575 5574 5574 5574 5575 5576 5577 5577 5576 5576 5576 5576 5577 5577 5578 5578 5578 5578 5578 5577 5577 5578 5577 5576 5575 5576 5577 5577 5575 5575 5575 5574 5574 5574 5574 5574 5572 5571 5570 5571 5572 5571 5570 5569 5569 5569 5569 5567 5566 5564 5563 5561 5560 5559 5559 5558 5556 5555 5554 5554 5553 5552 5551 5550 5549 5548 5547 5546 5545 5544 5544 5543 5542 5541 5540 5539 5538 5537 5537 5536
5569 5569 5569 5569 5570 5571 5570 5570 5570 5570 5571 5572 5572 5572 5571 5571 5572 5572 5572 5572 5573 5573 5573 5573 5572 5572 5573 5573 5572 5571 5569 5570 5570 5571 5570 5570 5569 5568 5567 5568 5569 5569 5567 5564 5564 5565 5567 5566 5565 5564 5563 5563 5563 5562 5560 5559 5557 5556 5554 5553 5552 5551 5550 5549 5548 5547 5546 5545 5544 5543 5542 5541 5540 5539 5538 5537 5536 5535 5534 5533 5532 5531 5530 5529 5529 5528
5564 5564 5564 5565 5565 5566 5566 5566 5566 5566 5566 5567 5567 5566 5566 5567 5567 5567 5567 5567 5568 5568 5568 5567 5567 5568 5568 5567 5566 5565 5564 5564 5564 5565 5565 5564 5563 5562 5561 5562 5563 5563 5560 5558 5558 5559 5561 5560 5559 5557 5557 5557 5557 5555 5554 5553 5552 5550 5549 5547 5546 5544 5543 5542 5541 5540 5539 5538 5537 5536 5535 5534 5533 5532 5530 5529 5528 5527 5526 5525 5524 5523 5522 5521 5521 5520
5560 5560 5560 5560 5561 5561 5562 5562 5561 5561 5562 5562 5562 5562 5561 5562 5562 5562 5562 5562 5562 5562 5562 5562 5563 5562 5562 5561 5561 5560 5558 5558 5558 5559 5559 5557 5556 5555 5555 5555 5556 5556 5554 5551 5551 5553 5555 5554 5552 5550 5550 5551 5550 5549 5547 5546 5545 5545 5544 5542 5540 5538 5536 5535 5534 5533 5532 5531 5530 5529 5528 5527 5525 5524 5523 5522 5521 5519 5518 5517 5516 5515 5514 5513 5513 5512
5556 5556 5556 5556 5557 5557 5557 5557 5557 5557 5557 5557 5557 5557 5557 5557 5557 5557 5557 5557 5557 5557 5557 5557 5557 5557 5556 5555 5555 5554 5553 5552 5552 5553 5553 5551 5550 5549 5548 5549 5549 5550 5548 5545 5545 5547 5549 5549 5546 5544 5544 5544 5544 5543 5541 5540 5539 5539 5538 5536 5534 5532 5529 5528 5527 5526 5525 5524 5522 5521 5520 5519 5518 5517 5515 5514 5513 5512 5510 5509 5508 5507 5506 5505 5504 5504
5551 5552 5552 5552 5552 5553 5553 5553 5552 5552 5552 5552 5552 5552 5552 5552 5553 5553 5552 5552 5551 5552 5552 5552 5552 5551 5550 5550 5550 5549 5547 5546 5546 5546 5546 5546 5544 5543 5542 5542 5543 5544 5542 5540 5539 5541 5543 5543 5541 5539 5538 5538 5537 5537 5535 5534 5533 5533 5532 5530 5529 5526 5524 5522 5520 5519 5518 5516 5515 5514 5513 5512 5510 5509 5508 5506 5505 5504 5502 5501 5500 5499 5497 5497 5496 5496
5547 5547 5548 5548 5548 5548 5548 5548 5548 5548 5547 5547 5547 5547 5547 5548 5548 5548 5547 5546 5546 5547 5547 5547 5546 5545 5545 5545 5545 5544 5543 5542 5541 5540 5540 5540 5539 5537 5535 5535 5537 5538 5537 5534 5534 5534 5536 5536 5535 5533 5532 5531 5531 5530 5530 5529 5527 5526 5525 5524 5522 5520 5518 5516 5514 5512 5510 5509 5508 5506 5505 5504 5503 5501 5500 5499 5497 5496 5494 5493 5491 5490 5489 5488 5488 5488
5543 5543 5543 5544 5544 5544 5544 5543 5543 5543 5543 5542 5542 5542 5542 5543 5543 5543 5541 5541 5542 5543 5543 5541 5540 5540 5540 5540 5540 5539 5539 5537 5535 5534 5534 5535 5534 5531 5529 5530 5531 5532 5530 5529 5528 5529 5530 5530 5529 5528 5526 5525 5524 5524 5524 5523 5521 5520 5519 5517 5515 5514 5512 5509 5507 5505 5504 5502 5500 5499 5498 5496 5495 5493 5492 5490 5489 5488 5486 5484 5483 5481 5480 5479 5479 5479
5539 5539 5539 5539 5539 5539 5539 5539 5539 5538 5538 5538 5538 5537 5537 5538 5538 5538 5536 5536 5537 5538 5537 5536 5535 5535 5535 5535 5535 5534 5534 5531 5529 5528 5529 5530 5528 5524 5523 5525 5526 5525 5522 5521 5522 5522 5523 5522 5522 5522 5521 5519 5517 5516 5516 5516 5515 5514 5512 5510 5508 5506 5504 5502 5500 5498 5496 5494 5493 5491 5490 5488 5487 5485 5484 5482 5481 5479 5478 5476 5474 5472 5470 5470 5469 5469
5534 5534 5535 5534 5534 5534 5534 5534 5534 5534 5534 5534 5533 5533 5533 5533 5533 5532 5532 5532 5532 5533 5532 5531 5530 5530 5530 5530 5530 5529 5528 5525 5523 5523 5524 5524 5521 5518 5517 5519 5520 5518 5514 5514 5515 5515 5514 5514 5515 5516 5515 5513 5511 5509 5508 5508 5508 5506 5504 5502 5500 5499 5497 5495 5493 5491 5489 5486 5485 5483 5482 5480 5478 5477 5475 5474 5472 5471 5469 5467 5465 5463 5461 5460 5460 5459
5529 5530 5530 5530 5530 5530 5530 5530 5529 5529 5529 5529 5529 5529 5528 5528 5528 5527 5527 5527 5527 5527 5526 5526 5525 5525 5524 5524 5524 5524 5522 5519 5517 5516 5517 5517 5514 5511 5510 5513 5513 5511 5507 5506 5507 5508 5507 5505 5506 5507 5508 5507 5505 5502 5500 5499 5499 5498 5496 5494 5492 5491 5489 5487 5485 5483 5481 5478 5476 5475 5474 5472 5469 5468 5466 5464 5463 5461 5459 5458 5455 5453 5451 5450 5449 5449
5524 5524 5525 5524 5524 5524 5525 5525 5524 5524 5524 5524 5524 5524 5523 5523 5523 5522 5522 5521 5521 5521 5521 5520 5519 5519 5519 5518 5518 5517 5515 5513 5511 5510 5510 5510 5508 5504 5503 5505 5505 5504 5500 5498 5498 5499 5498 5497 5496 5497 5498 5499 5498 5495 5492 5490 5489 5488 5486 5484 5483 5482 5479 5478 5476 5475 5473 5469 5467 5466 5464 5463 5460 5458 5457 5455 5453 5451 5450 5448 5445 5443 5441 5439 5439 5438
5519 5519 5519 5519 5519 5519 5519 5519 5519 5519 5519 5519 5519 5518 5518 5518 5517 5517 5516 5515 5515 5514 5514 5514 5513 5513 5512 5512 5511 5510 5509 5507 5504 5502 5502 5502 5500 5497 5495 5496 5496 5495 5492 5490 5489 5489 5488 5488 5487 5487 5487 5487 5487 5486 5484 5482 5479 5477 5475 5474 5474 5472 5470 5468 5466 5465 5463 5460 5458 5456 5455 5453 5451 5449 5447 5445 5443 5441 5439 5438 5435 5433 5430 5428 5427 5427
5514 5514 5514 5514 5514 5514 5514 5514 5514 5514 5514 5513 5513 5513 5512 5512 5511 5510 5510 5509 5509 5508 5508 5507 5507 5506 5505 5505 5504 5503 5502 5499 5497 5495 5494 5493 5491 5489 5487 5487 5487 5486 5484 5482 5480 5479 5478 5478 5478 5478 5477 5477 5477 5476 5475 5473 5471 5469 5466 5464 5463 5463 5461 5459 5457 5455 5453 5451 5449 5447 5445 5443 5441 5439 5437 5435 5433 5431 5429 5427 5425 5422 5419 5418 5416 5415
5509 5509 5509 5509 5509 5509 5509 5509 5509 5509 5508 5508 5507 5507 5506 5506 5505 5504 5504 5503 5503 5502 5501 5501 5500 5499 5499 5498 5498 5496 5495 5492 5490 5488 5487 5484 5482 5481 5480 5479 5478 5476 5476 5475 5472 5470 5469 5469 5470 5469 5468 5469 5468 5467 5465 5464 5463 5462 5459 5456 5454 5452 5452 5451 5448 5445 5444 5442 5440 5438 5435 5433 5431 5429 5427 5424 5423 5421 5419 5417 5414 5412 5409 5407 5405 5404
5505 5504 5504 5504 5505 5505 5504 5504 5504 5504 5503 5503 5502 5501 5501 5500 5500 5499 5498 5498 5497 5496 5496 5495 5494 5493 5492 5492 5491 5489 5488 5485 5483 5481 5479 5477 5474 5474 5473 5471 5469 5468 5468 5468 5465 5463 5461 5461 5462 5461 5460 5460 5460 5459 5457 5455 5454 5454 5453 5449 5446 5444 5443 5441 5439 5436 5434 5433 5431 5428 5425 5423 5421 5419 5416 5414 5412 5410 5409 5407 5404 5401 5399 5397 5395 5393
5500 5500 5500 5500 5500 5500 5500 5499 5499 5499 5498 5498 5497 5497 5496 5495 5495 5494 5493 5492 5492 5491 5490 5489 5488 5487 5486 5485 5484 5483 5481 5479 5477 5474 5472 5470 5468 5467 5466 5465 5463 5461 5460 5460 5459 5457 5454 5453 5453 5453 5452 5451 5451 5450 5449 5448 5446 5445 5443 5440 5438 5436 5435 5432 5429 5426 5424 5423 5421 5418 5415 5412 5409 5407 5405 5403 5401 5399 5398 5396 5393 5390 5388 5386 5385 5383
5496 5496 5496 5496 5496 5495 5495 5495 5494 5494 5493 5493 5492 5492 5491 5490 5489 5489 5488 5487 5487 5486 5485 5484 5483 5482 5481 5480 5479 5477 5475 5473 5470 5468 5466 5463 5461 5460 5459 5458 5456 5454 5452 5452 5452 5451 5449 5446 5445 5444 5444 5443 5442 5441 5440 5439 5438 5437 5434 5431 5429 5428 5426 5422 5419 5417 5415 5412 5410 5408 5405 5402 5399 5396 5394 5392 5389 5388 5386 5385 5383 5379 5377 5375 5374 5373
5492 5492 5492 5491 5491 5491 5491 5490 5489 5489 5489 5488 5488 5487 5486 5485 5484 5484 5483 5482 5482 5481 5480 5479 5478 5478 5476 5475 5474 5472 5469 5467 5464 5462 5460 5457 5455 5453 5452 5451 5450 5448 5446 5444 5444 5444 5442 5440 5438 5436 5434 5434 5433 5432 5431 5430 5429 5427 5424 5422 5420 5418 5414 5412 5410 5409 5406 5401 5399 5397 5395 5393 5389 5386 5383 5381 5379 5377 5376 5374 5372 5370 5367 5365 5364 5364
5488 5488 5488 5487 5487 5486 5486 5486 5485 5484 5484 5484 5483 5482 5481 5481 5480 5479 5479 5478 5477 5476 5475 5474 5474 5473 5471 5470 5469 5467 5464 5461 5459 5456 5454 5451 5449 5446 5444 5444 5443 5441 5439 5439 5437 5436 5434 5433 5431 5429 5426 5424 5423 5422 5422 5421 5419 5416 5414 5412 5410 5407 5403 5401 5400 5399 5395 5392 5388 5386 5384 5383 5380 5377 5374 5371 5369 5367 5366 5364 5362 5361 5359 5356 5354 5354
5484 5484 5483 5483 5483 5482 5482 5481 5481 5480 5480 5479 5479 5478 5477 5476 5476 5476 5475 5474 5473 5472 5470 5470 5469 5468 5467 5465 5463 5461 5459 5456 5454 5450 5448 5445 5443 5440 5438 5436 5434 5433 5432 5432 5431 5429 5426 5424 5423 5421 5419 5415 5412 5412 5413 5412 5409 5405 5403 5401 5399 5396 5393 5392 5389 5386 5384 5383 5380 5376 5373 5372 5371 5369 5366 5363 5361 5359 5357 5355 5354 5353 5351 5349 5347 5345
5480 5480 5479 5479 5479 5478 5478 5477 5477 5476 5476 5475 5475 5474 5473 5472 5472 5471 5471 5469 5468 5467 5465 5465 5464 5464 5463 5460 5458 5456 5454 5451 5449 5446 5443 5439 5437 5434 5432 5429 5427 5425 5424 5424 5424 5421 5418 5415 5414 5413 5410 5406 5404 5403 5403 5401 5398 5395 5393 5390 5387 5385 5384 5383 5379 5375 5374 5374 5372 5368 5364 5363 5362 5360 5358 5356 5354 5352 5350 5349 5347 5346 5344 5343 5341 5340
5476 5476 5475 5475 5475 5474 5474 5474 5473 5472 5472 5471 5471 5469 5468 5467 5467 5467 5466 5464 5463 5462 5460 5459 5459 5458 5457 5455 5453 5450 5449 5446 5444 5440 5437 5434 5431 5428 5425 5422 5420 5417 5415 5415 5415 5413 5410 5407 5405 5403 5400 5397 5396 5395 5393 5389 5387 5385 5383 5380 5377 5375 5375 5373 5369 5366 5365 5364 5363 5359 5357 5355 5354 5353 5351 5349 5348 5346 5344 5343 5342 5340 5339 5337 5336 5335
5472 5472 5472 5471 5471 5470 5470 5469 5469 5468 5468 5467 5466 5465 5464 5463 5462 5462 5461 5459 5458 5456 5455 5454 5453 5453 5451 5448 5446 5444 5444 5441 5438 5434 5431 5428 5425 5422 5418 5416 5413 5410 5407 5405 5404 5403 5402 5400 5397 5393 5389 5387 5387 5386 5384 5380 5377 5375 5373 5370 5368 5366 5365 5364 5361 5359 5358 5357 5354 5352 5349 5348 5347 5347 5346 5344 5342 5340 5340 5339 5337 5336 5334 5333 5331 5330
5469 5468 5468 5467 5467 5467 5466 5465 5464 5464 5464 5463 5462 5460 5459 5458 5457 5456 5455 5454 5453 5451 5449 5448 5448 5447 5445 5442 5439 5438 5437 5435 5431 5427 5424 5421 5418 5414 5411 5408 5405 5403 5400 5397 5394 5393 5391 5390 5388 5385 5381 5379 5377 5375 5373 5370 5369 5367 5365 5362 5359 5358 5358 5356 5354 5351 5349 5349 5348 5346 5343 5342 5341 5341 5341 5339 5338 5336 5336 5334 5333 5332 5331 5329 5328 5327
5464 5464 5464 5463 5463 5462 5461 5461 5460 5460 5459 5458 5457 5455 5454 5453 5452 5451 5449 5448 5447 5446 5444 5442 5441 5440 5438 5435 5432 5430 5429 5427 5424 5420 5416 5413 5410 5407 5404 5400 5397 5394 5392 5389 5387 5384 5382 5379 5377 5375 5373 5371 5369 5366 5364 5361 5360 5359 5358 5355 5353 5351 5351 5350 5348 5345 5343 5343 5342 5340 5338 5337 5337 5336 5335 5334 5334 5333 5332 5331 5330 5329 5328 5326 5325 5324
5460 5460 5459 5459 5459 5458 5457 5456 5456 5455 5455 5454 5452 5450 5449 5448 5447 5446 5444 5442 5441 5440 5438 5436 5434 5432 5430 5428 5425 5422 5420 5419 5416 5412 5409 5405 5402 5399 5395 5392 5389 5386 5384 5381 5379 5376 5374 5371 5369 5366 5364 5363 5361 5359 5356 5354 5353 5352 5351 5349 5347 5346 5345 5344 5343 5340 5339 5339 5338 5336 5334 5334 5333 5332 5331 5331 5330 5330 5329 5328 5327 5326 5324 5324 5323 5322
5456 5456 5455 5455 5454 5454 5453 5452 5451 5451 5450 5449 5447 5446 5444 5443 5441 5440 5438 5436 5434 5433 5432 5430 5428 5425 5423 5420 5417 5414 5412 5410 5408 5404 5400 5397 5394 5391 5388 5385 5381 5379 5376 5374 5372 5369 5367 5365 5363 5360 5357 5355 5354 5353 5350 5348 5347 5347 5346 5345 5343 5342 5341 5340 5339 5337 5336 5335 5334 5333 5332 5331 5330 5329 5329 5328 5328 5327 5326 5326 5325 5324 5322 5321 5321 5320
5452 5451 5451 5450 5450 5449 5448 5447 5447 5446 5444 5443 5442 5440 5439 5437 5435 5434 5432 5430 5429 5427 5424 5423 5420 5418 5416 5413 5409 5407 5404 5402 5399 5396 5393 5389 5386 5384 5381 5378 5375 5372 5370 5368 5366 5363 5362 5361 5359 5356 5353 5350 5349 5348 5347 5344 5343 5342 5343 5342 5340 5339 5338 5337 5336 5335 5334 5333 5332 5331 5330 5329 5328 5327 5327 5326 5325 5324 5324 5324 5323 5322 5320 5320 5319 5319
5447 5447 5446 5446 5445 5444 5443 5442 5442 5440 5439 5438 5436 5435 5434 5432 5429 5427 5425 5424 5422 5420 5417 5415 5413 5411 5408 5405 5402 5399 5397 5394 5392 5389 5386 5382 5379 5377 5375 5372 5369 5367 5365 5364 5361 5359 5357 5356 5356 5354 5350 5347 5346 5345 5345 5343 5341 5340 5340 5339 5338 5337 5336 5335 5334 5333 5332 5331 5330 5329 5329 5328 5327 5326 5325 5324 5324 5323 5322 5322 5321 5320 5319 5318 5317 5317